Year,Month,Day,Hour,Minute,Value (Times are PST for temperature in C)
2017,11,13,00,00,8.30
2017,11,13,00,01,8.30
2017,11,13,00,02,8.30
2017,11,13,00,03,8.30
2017,11,13,00,04,8.30
2017,11,13,00,05,8.30
2017,11,13,00,06,8.30
2017,11,13,00,07,8.30
2017,11,13,00,08,8.40
2017,11,13,00,09,8.40
2017,11,13,00,10,8.40
2017,11,13,00,11,8.40
2017,11,13,00,12,8.40
2017,11,13,00,13,8.40
2017,11,13,00,14,8.40
2017,11,13,00,15,8.40
2017,11,13,00,16,8.40
2017,11,13,00,17,8.40
2017,11,13,00,18,8.40
2017,11,13,00,19,8.40
2017,11,13,00,20,8.40
2017,11,13,00,21,8.40
2017,11,13,00,22,8.40
2017,11,13,00,23,8.40
2017,11,13,00,24,8.40
2017,11,13,00,25,8.50
2017,11,13,00,26,8.50
2017,11,13,00,27,8.50
2017,11,13,00,28,8.50
2017,11,13,00,29,8.50
2017,11,13,00,30,8.50
2017,11,13,00,31,8.50
2017,11,13,00,32,8.50
2017,11,13,00,33,8.50
2017,11,13,00,34,8.50
2017,11,13,00,35,8.50
2017,11,13,00,36,8.50
2017,11,13,00,37,8.60
2017,11,13,00,38,8.50
2017,11,13,00,39,8.50
2017,11,13,00,40,8.60
2017,11,13,00,41,8.60
2017,11,13,00,42,8.60
2017,11,13,00,43,8.60
2017,11,13,00,44,8.60
2017,11,13,00,45,8.60
2017,11,13,00,46,8.60
2017,11,13,00,47,8.60
2017,11,13,00,48,8.60
2017,11,13,00,49,8.60
2017,11,13,00,50,8.60
2017,11,13,00,51,8.60
2017,11,13,00,52,8.60
2017,11,13,00,53,8.60
2017,11,13,00,54,8.60
2017,11,13,00,55,8.60
2017,11,13,00,56,8.60
2017,11,13,00,57,8.60
2017,11,13,00,58,8.60
2017,11,13,00,59,8.60
2017,11,13,01,00,8.60
2017,11,13,01,01,8.60
2017,11,13,01,02,8.60
2017,11,13,01,03,8.60
2017,11,13,01,04,8.60
2017,11,13,01,05,8.60
2017,11,13,01,06,8.60
2017,11,13,01,07,8.60
2017,11,13,01,08,8.60
2017,11,13,01,09,8.60
2017,11,13,01,10,8.60
2017,11,13,01,11,8.60
2017,11,13,01,12,8.60
2017,11,13,01,13,8.60
2017,11,13,01,14,8.50
2017,11,13,01,15,8.50
2017,11,13,01,16,8.50
2017,11,13,01,17,8.50
2017,11,13,01,18,8.50
2017,11,13,01,19,8.50
2017,11,13,01,20,8.50
2017,11,13,01,21,8.50
2017,11,13,01,22,8.50
2017,11,13,01,23,8.40
2017,11,13,01,24,8.40
2017,11,13,01,25,8.40
2017,11,13,01,26,8.50
2017,11,13,01,27,8.50
2017,11,13,01,28,8.50
2017,11,13,01,29,8.50
2017,11,13,01,30,8.50
2017,11,13,01,31,8.50
2017,11,13,01,32,8.40
2017,11,13,01,33,8.40
2017,11,13,01,34,8.40
2017,11,13,01,35,8.40
2017,11,13,01,36,8.40
2017,11,13,01,37,8.40
2017,11,13,01,38,8.40
2017,11,13,01,39,8.40
2017,11,13,01,40,8.40
2017,11,13,01,41,8.40
2017,11,13,01,42,8.40
2017,11,13,01,43,8.40
2017,11,13,01,44,8.40
2017,11,13,01,45,8.40
2017,11,13,01,46,8.50
2017,11,13,01,47,8.60
2017,11,13,01,48,8.70
2017,11,13,01,49,8.70
2017,11,13,01,50,8.70
2017,11,13,01,51,8.70
2017,11,13,01,52,8.70
2017,11,13,01,53,8.70
2017,11,13,01,54,8.70
2017,11,13,01,55,8.70
2017,11,13,01,56,8.70
2017,11,13,01,57,8.80
2017,11,13,01,58,8.80
2017,11,13,01,59,8.80
2017,11,13,02,00,8.90
2017,11,13,02,01,8.90
2017,11,13,02,02,9.00
2017,11,13,02,03,9.10
2017,11,13,02,04,9.20
2017,11,13,02,05,9.20
2017,11,13,02,06,9.30
2017,11,13,02,07,9.30
2017,11,13,02,08,9.40
2017,11,13,02,09,9.40
2017,11,13,02,10,9.40
2017,11,13,02,11,9.60
2017,11,13,02,12,9.60
2017,11,13,02,13,9.60
2017,11,13,02,14,9.50
2017,11,13,02,15,9.40
2017,11,13,02,16,9.40
2017,11,13,02,17,9.40
2017,11,13,02,18,9.40
2017,11,13,02,19,9.40
2017,11,13,02,20,9.40
2017,11,13,02,21,9.40
2017,11,13,02,22,9.60
2017,11,13,02,23,9.90
2017,11,13,02,24,10.10
2017,11,13,02,25,10.20
2017,11,13,02,26,10.20
2017,11,13,02,27,10.30
2017,11,13,02,28,10.30
2017,11,13,02,29,10.20
2017,11,13,02,30,10.10
2017,11,13,02,31,10.10
2017,11,13,02,32,9.90
2017,11,13,02,33,9.80
2017,11,13,02,34,9.80
2017,11,13,02,35,9.80
2017,11,13,02,36,9.70
2017,11,13,02,37,9.70
2017,11,13,02,38,9.60
2017,11,13,02,39,9.60
2017,11,13,02,40,9.50
2017,11,13,02,41,9.40
2017,11,13,02,42,9.30
2017,11,13,02,43,9.30
2017,11,13,02,44,9.30
2017,11,13,02,45,9.30
2017,11,13,02,46,9.30
2017,11,13,02,47,9.40
2017,11,13,02,48,9.40
2017,11,13,02,49,9.50
2017,11,13,02,50,9.70
2017,11,13,02,51,9.90
2017,11,13,02,52,9.90
2017,11,13,02,53,9.80
2017,11,13,02,54,9.70
2017,11,13,02,55,9.50
2017,11,13,02,56,9.40
2017,11,13,02,57,9.40
2017,11,13,02,58,9.40
2017,11,13,02,59,9.50
2017,11,13,03,00,9.50
2017,11,13,03,01,9.50
2017,11,13,03,02,9.40
2017,11,13,03,03,9.40
2017,11,13,03,04,9.30
2017,11,13,03,05,9.30
2017,11,13,03,06,9.30
2017,11,13,03,07,9.30
2017,11,13,03,08,9.20
2017,11,13,03,09,9.10
2017,11,13,03,10,9.10
2017,11,13,03,11,9.00
2017,11,13,03,12,9.00
2017,11,13,03,13,8.90
2017,11,13,03,14,8.90
2017,11,13,03,15,8.80
2017,11,13,03,16,8.80
2017,11,13,03,17,8.80
2017,11,13,03,18,8.70
2017,11,13,03,19,8.70
2017,11,13,03,20,8.60
2017,11,13,03,21,8.50
2017,11,13,03,22,8.50
2017,11,13,03,23,8.40
2017,11,13,03,24,8.40
2017,11,13,03,25,8.40
2017,11,13,03,26,8.40
2017,11,13,03,27,8.40
2017,11,13,03,28,8.40
2017,11,13,03,29,8.40
2017,11,13,03,30,8.40
2017,11,13,03,31,8.40
2017,11,13,03,32,8.40
2017,11,13,03,33,8.40
2017,11,13,03,34,8.50
2017,11,13,03,35,8.50
2017,11,13,03,36,8.50
2017,11,13,03,37,8.40
2017,11,13,03,38,8.40
2017,11,13,03,39,8.40
2017,11,13,03,40,8.40
2017,11,13,03,41,8.40
2017,11,13,03,42,8.40
2017,11,13,03,43,8.40
2017,11,13,03,44,8.50
2017,11,13,03,45,8.50
2017,11,13,03,46,8.50
2017,11,13,03,47,8.60
2017,11,13,03,48,8.60
2017,11,13,03,49,8.60
2017,11,13,03,50,8.60
2017,11,13,03,51,8.60
2017,11,13,03,52,8.60
2017,11,13,03,53,8.60
2017,11,13,03,54,8.60
2017,11,13,03,55,8.50
2017,11,13,03,56,8.50
2017,11,13,03,57,8.60
2017,11,13,03,58,8.70
2017,11,13,03,59,8.70
2017,11,13,04,00,8.80
2017,11,13,04,01,8.80
2017,11,13,04,02,8.90
2017,11,13,04,03,9.00
2017,11,13,04,04,9.20
2017,11,13,04,05,9.30
2017,11,13,04,06,9.40
2017,11,13,04,07,9.50
2017,11,13,04,08,9.70
2017,11,13,04,09,9.80
2017,11,13,04,10,9.90
2017,11,13,04,11,9.90
2017,11,13,04,12,9.80
2017,11,13,04,13,9.80
2017,11,13,04,14,9.60
2017,11,13,04,15,9.50
2017,11,13,04,16,9.30
2017,11,13,04,17,9.20
2017,11,13,04,18,9.20
2017,11,13,04,19,9.20
2017,11,13,04,20,9.30
2017,11,13,04,21,9.40
2017,11,13,04,22,9.50
2017,11,13,04,23,9.50
2017,11,13,04,24,9.60
2017,11,13,04,25,9.50
2017,11,13,04,26,9.60
2017,11,13,04,27,9.60
2017,11,13,04,28,9.80
2017,11,13,04,29,9.90
2017,11,13,04,30,10.10
2017,11,13,04,31,10.30
2017,11,13,04,32,10.40
2017,11,13,04,33,10.40
2017,11,13,04,34,10.40
2017,11,13,04,35,10.40
2017,11,13,04,36,10.40
2017,11,13,04,37,10.40
2017,11,13,04,38,10.30
2017,11,13,04,39,10.30
2017,11,13,04,40,10.30
2017,11,13,04,41,10.20
2017,11,13,04,42,10.20
2017,11,13,04,43,10.20
2017,11,13,04,44,10.20
2017,11,13,04,45,10.10
2017,11,13,04,46,10.10
2017,11,13,04,47,10.10
2017,11,13,04,48,10.00
2017,11,13,04,49,9.90
2017,11,13,04,50,9.80
2017,11,13,04,51,9.70
2017,11,13,04,52,9.70
2017,11,13,04,53,9.70
2017,11,13,04,54,9.70
2017,11,13,04,55,9.70
2017,11,13,04,56,9.80
2017,11,13,04,57,9.90
2017,11,13,04,58,9.90
2017,11,13,04,59,10.00
2017,11,13,05,00,10.00
2017,11,13,05,01,9.90
2017,11,13,05,02,9.90
2017,11,13,05,03,9.90
2017,11,13,05,04,9.90
2017,11,13,05,05,9.90
2017,11,13,05,06,9.90
2017,11,13,05,07,9.90
2017,11,13,05,08,9.90
2017,11,13,05,09,10.10
2017,11,13,05,10,10.20
2017,11,13,05,11,10.30
2017,11,13,05,12,10.30
2017,11,13,05,13,10.30
2017,11,13,05,14,10.30
2017,11,13,05,15,10.30
2017,11,13,05,16,10.20
2017,11,13,05,17,10.20
2017,11,13,05,18,10.30
2017,11,13,05,19,10.40
2017,11,13,05,20,10.50
2017,11,13,05,21,10.50
2017,11,13,05,22,10.50
2017,11,13,05,23,10.40
2017,11,13,05,24,10.30
2017,11,13,05,25,10.40
2017,11,13,05,26,10.30
2017,11,13,05,27,10.30
2017,11,13,05,28,10.20
2017,11,13,05,29,10.20
2017,11,13,05,30,10.30
2017,11,13,05,31,10.30
2017,11,13,05,32,10.30
2017,11,13,05,33,10.30
2017,11,13,05,34,10.30
2017,11,13,05,35,10.20
2017,11,13,05,36,10.20
2017,11,13,05,37,10.20
2017,11,13,05,38,10.20
2017,11,13,05,39,10.20
2017,11,13,05,40,10.20
2017,11,13,05,41,10.30
2017,11,13,05,42,10.30
2017,11,13,05,43,10.20
2017,11,13,05,44,10.10
2017,11,13,05,45,10.10
2017,11,13,05,46,10.20
2017,11,13,05,47,10.30
2017,11,13,05,48,10.30
2017,11,13,05,49,10.40
2017,11,13,05,50,10.50
2017,11,13,05,51,10.50
2017,11,13,05,52,10.60
2017,11,13,05,53,10.70
2017,11,13,05,54,10.70
2017,11,13,05,55,10.80
2017,11,13,05,56,10.80
2017,11,13,05,57,10.80
2017,11,13,05,58,10.80
2017,11,13,05,59,10.90
2017,11,13,06,00,10.90
2017,11,13,06,01,10.90
2017,11,13,06,02,10.90
2017,11,13,06,03,10.90
2017,11,13,06,04,10.80
2017,11,13,06,05,10.80
2017,11,13,06,06,10.80
2017,11,13,06,07,10.70
2017,11,13,20,27,9.20
2017,11,13,20,28,9.10
2017,11,13,20,29,9.10
2017,11,13,20,30,9.10
2017,11,13,20,31,9.10
2017,11,13,20,32,9.10
2017,11,13,20,33,9.10
2017,11,13,20,34,9.10
2017,11,13,20,35,9.10
2017,11,13,20,36,9.10
2017,11,13,20,37,9.10
2017,11,13,20,38,9.10
2017,11,13,20,39,9.10
2017,11,13,20,40,9.10
2017,11,13,20,41,9.10
2017,11,13,20,42,9.10
2017,11,13,20,43,9.10
2017,11,13,20,44,9.20
2017,11,13,20,45,9.20
2017,11,13,20,46,9.20
2017,11,13,20,47,9.30
2017,11,13,20,48,9.20
2017,11,13,20,49,9.20
2017,11,13,20,50,9.20
2017,11,13,20,51,9.20
2017,11,13,20,52,9.20
2017,11,13,20,53,9.20
2017,11,13,20,54,9.10
2017,11,13,20,55,9.10
2017,11,13,20,56,9.10
2017,11,13,20,57,9.10
2017,11,13,20,58,9.00
2017,11,13,20,59,9.00
2017,11,13,21,00,9.00
2017,11,13,21,01,9.00
2017,11,13,21,02,9.00
2017,11,13,21,03,8.90
2017,11,13,21,04,8.90
2017,11,13,21,05,8.90
2017,11,13,21,06,8.90
2017,11,13,21,07,8.90
2017,11,13,21,08,8.90
2017,11,13,21,09,8.90
2017,11,13,21,10,8.90
2017,11,13,21,11,8.90
2017,11,13,21,12,8.90
2017,11,13,21,13,8.90
2017,11,13,21,14,8.90
2017,11,13,21,15,8.90
2017,11,13,21,16,8.90
2017,11,13,21,17,8.90
2017,11,13,21,18,8.90
2017,11,13,21,19,8.90
2017,11,13,21,20,8.90
2017,11,13,21,21,8.80
2017,11,13,21,22,8.80
2017,11,13,21,23,8.80
2017,11,13,21,24,8.80
2017,11,13,21,25,8.80
2017,11,13,21,26,8.80
2017,11,13,21,27,8.80
2017,11,13,21,28,8.80
2017,11,13,21,29,8.70
2017,11,13,21,30,8.70
2017,11,13,21,31,8.70
2017,11,13,21,32,8.60
2017,11,13,21,33,8.60
2017,11,13,21,34,8.60
2017,11,13,21,35,8.60
2017,11,13,21,36,8.60
2017,11,13,21,37,8.60
2017,11,13,21,38,8.60
2017,11,13,21,39,8.60
2017,11,13,21,40,8.60
2017,11,13,21,41,8.60
2017,11,13,21,42,8.60
2017,11,13,21,43,8.60
2017,11,13,21,44,8.60
2017,11,13,21,45,8.60
2017,11,13,21,46,8.60
2017,11,13,21,47,8.50
2017,11,13,21,48,8.50
2017,11,13,21,49,8.50
2017,11,13,21,50,8.50
2017,11,13,21,51,8.40
2017,11,13,21,52,8.40
2017,11,13,21,53,8.40
2017,11,13,21,54,8.40
2017,11,13,21,55,8.40
2017,11,13,21,56,8.40
2017,11,13,21,57,8.40
2017,11,13,21,58,8.40
2017,11,13,21,59,8.40
2017,11,13,22,00,8.40
2017,11,13,22,01,8.40
2017,11,13,22,02,8.40
2017,11,13,22,03,8.40
2017,11,13,22,04,8.40
2017,11,13,22,05,8.40
2017,11,13,22,06,8.40
2017,11,13,22,07,8.40
2017,11,13,22,08,8.40
2017,11,13,22,09,8.40
2017,11,13,22,10,8.40
2017,11,13,22,11,8.30
2017,11,13,22,12,8.30
2017,11,13,22,13,8.20
2017,11,13,22,14,8.20
2017,11,13,22,15,8.20
2017,11,13,22,16,8.20
2017,11,13,22,17,8.20
2017,11,13,22,18,8.20
2017,11,13,22,19,8.10
2017,11,13,22,20,8.10
2017,11,13,22,21,8.10
2017,11,13,22,22,8.10
2017,11,13,22,23,8.10
2017,11,13,22,24,8.10
2017,11,13,22,25,8.20
2017,11,13,22,26,8.20
2017,11,13,22,27,8.20
2017,11,13,22,28,8.20
2017,11,13,22,29,8.30
2017,11,13,22,30,8.30
2017,11,13,22,31,8.30
2017,11,13,22,32,8.30
2017,11,13,22,33,8.30
2017,11,13,22,34,8.30
2017,11,13,22,35,8.40
2017,11,13,22,36,8.40
2017,11,13,22,37,8.40
2017,11,13,22,38,8.50
2017,11,13,22,39,8.50
2017,11,13,22,40,8.50
2017,11,13,22,41,8.50
2017,11,13,22,42,8.50
2017,11,13,22,43,8.50
2017,11,13,22,44,8.50
2017,11,13,22,45,8.50
2017,11,13,22,46,8.50
2017,11,13,22,47,8.50
2017,11,13,22,48,8.40
2017,11,13,22,49,8.40
2017,11,13,22,50,8.40
2017,11,13,22,51,8.40
2017,11,13,22,52,8.40
2017,11,13,22,53,8.40
2017,11,13,22,54,8.40
2017,11,13,22,55,8.40
2017,11,13,22,56,8.30
2017,11,13,22,57,8.30
2017,11,13,22,58,8.30
2017,11,13,22,59,8.30
2017,11,13,23,00,8.30
2017,11,13,23,01,8.30
2017,11,13,23,02,8.30
2017,11,13,23,03,8.30
2017,11,13,23,04,8.30
2017,11,13,23,05,8.30
2017,11,13,23,06,8.30
2017,11,13,23,07,8.20
2017,11,13,23,08,8.20
2017,11,13,23,09,8.20
2017,11,13,23,10,8.20
2017,11,13,23,11,8.20
2017,11,13,23,12,8.20
2017,11,13,23,13,8.20
2017,11,13,23,14,8.10
2017,11,13,23,15,8.10
2017,11,13,23,16,8.00
2017,11,13,23,17,8.00
2017,11,13,23,18,7.90
2017,11,13,23,19,7.90
2017,11,13,23,20,7.90
2017,11,13,23,21,7.80
2017,11,13,23,22,7.80
2017,11,13,23,23,7.80
2017,11,13,23,24,7.70
2017,11,13,23,25,7.70
2017,11,13,23,26,7.70
2017,11,13,23,27,7.70
2017,11,13,23,28,7.60
2017,11,13,23,29,7.60
2017,11,13,23,30,7.60
2017,11,13,23,31,7.50
2017,11,13,23,32,7.50
2017,11,13,23,33,7.40
2017,11,13,23,34,7.40
2017,11,13,23,35,7.30
2017,11,13,23,36,7.30
2017,11,13,23,37,7.30
2017,11,13,23,38,7.20
2017,11,13,23,39,7.20
2017,11,13,23,40,7.10
2017,11,13,23,41,7.10
2017,11,13,23,42,7.10
2017,11,13,23,43,7.10
2017,11,13,23,44,7.10
2017,11,13,23,45,7.00
2017,11,13,23,46,7.00
2017,11,13,23,47,7.00
2017,11,13,23,48,7.00
2017,11,13,23,49,6.90
2017,11,13,23,50,6.90
2017,11,13,23,51,6.90
2017,11,13,23,52,6.90
2017,11,13,23,53,6.80
2017,11,13,23,54,6.80
2017,11,13,23,55,6.80
2017,11,13,23,56,6.80
2017,11,13,23,57,6.80
2017,11,13,23,58,6.80
2017,11,13,23,59,6.80
